Regional Weather Roundup
Issued by NWS

Home | Current Version | Previous Version | Text Only | Print | Product List | Glossary Off
Versions: 1 2 3 4 5 6 7 8 9 10 11 12 13 14 15 16 17 18 19 20 21 22 23 24 25 26 27

000
ASUS45 KSLC 191110
RWRUT

UTAH REGIONAL WEATHER ROUNDUP
NATIONAL WEATHER SERVICE SALT LAKE CITY UT
400 AM MST THU JAN 19 2017

UTZ001>011-023>025-191200-

NORTHERN UTAH

CITY           SKY/WX    TMP DP  RH WIND       PRES   REMARKS
BRIGHAM CITY     N/A     21  17  83 N3        29.81F
HILL AFB       CLOUDY    23  19  86 SE5       29.77F WCI  17
LOGAN          MOCLDY    16  13  88 E3        29.81F FOG
OGDEN          CLOUDY    21  19  92 CALM      29.79F FOG
SALT LAKE CITY CLOUDY    26  22  84 SW5       29.81F FOG     WCI  20
TOOELE VALLEY  LGT SNOW  28  27  93 W3        29.81F
WENDOVER       CLOUDY    23  19  86 CALM      29.82S
HEBER CITY     CLOUDY    18  12  79 E3        29.78F
WEST JORDAN    CLOUDY    25  25 100 CALM      29.81S

$$

UTZ011>015-024>027-191200-

CENTRAL/NORTHEAST UTAH

CITY           SKY/WX    TMP DP  RH WIND       PRES   REMARKS
PROVO AIRPORT  CLOUDY    35  21  56 VRB5      29.84S WCI  31
MOAB/CANYONLAN PTCLDY    28  25  88 CALM      29.88F
DELTA          CLOUDY    32  32 100 S13       29.83F VSB 3/4 WCI  22
PRICE          CLOUDY    22  16  78 CALM      29.87F
RICHFIELD      MOCLDY    30  28  93 SE2       29.84
ROOSEVELT      FLURRIES   1  -4  78 W3        29.99F
VERNAL         CLOUDY    12   8  84 CALM      29.96F FOG

$$

UTZ013>016-019>022-027-191200-

SOUTHERN UTAH

CITY           SKY/WX    TMP DP  RH WIND       PRES   REMARKS
BRYCE CANYON   CLOUDY    23  15  71 CALM      29.88F
CEDAR CITY     CLOUDY    33  27  78 SW14G22   29.84F WCI  23
MILFORD        LGT SNOW  33  31  92 S18       29.84F FOG     WCI  22
ST GEORGE      CLOUDY    43  30  61 NW3       29.94F
HANKSVILLE     MOCLDY    23  21  93 MISG      29.92F
KANAB          CLOUDY    37  28  70 SW5       29.95F WCI  34
BLANDING       CLEAR     27  24  89 CALM      29.99F

$$

REGIONAL REPORTS     COLORADO/ARIZONA

CITY           SKY/WX    TMP DP  RH WIND       PRES   REMARKS
CRAIG, CO      CLOUDY     1  -5  75 CALM      29.89F
GRAND JUNCTION CLOUDY    26  24  92 E7        29.91F WCI  18
RIFLE, CO      CLOUDY    22  19  89 CALM      29.93F
MONTROSE, CO   CLOUDY    26  21  81 SE8       29.95F WCI  18
CORTEZ, CO     CLOUDY    21  20  96 CALM      29.94F
COLORADO CITY  LGT RAIN  37  32  81 SW8G16    29.96R WCI  31
PAGE, AZ       CLOUDY    35  27  72 CALM      29.90F
GRAND CANYON   MOCLDY    31  30  96 S12       29.94F WCI  22
KINGMAN, AZ    CLOUDY    46  26  45 SW15      29.94F
FLAGSTAFF, AZ  CLOUDY    31  28  89 W10G23    29.96F WCI  22

$$

REGIONAL REPORTS    NEVADA/IDAHO/WYOMING

CITY           SKY/WX    TMP DP  RH WIND       PRES   REMARKS
LAS VEGAS, NV  CLOUDY    51  37  58 S9        29.86F
ELY, NY        LGT SNOW  29  26  89 S15       29.78F FOG     WCI  18
ELKO, NV       FLURRIES  34  28  79 S15G25    29.71S WCI  24
POCATELLO, ID  LGT SNOW  29  26  89 W6        29.74F FOG     WCI  23
BURLEY, ID     LGT SNOW  34  30  85 S23G30    29.67F FOG     WCI  22
FORT BRIDGER,    N/A      4  -1  79 NW3       29.79F
EVANSTON, WY   CLOUDY    27   9  46 S5        29.74F WCI  22
ROCK SPRINGS,  CLOUDY     7   3  84 E6        29.77F WCI  -3

$$




USA.gov is the U.S. government's official web portal to all federal, state and local government web resources and services.